Location: Austin
(30.3000°N, 97.7500°W)
Time: 01:12:46
(UTC-05:00)

SWIFT - Pass Details

Date: 15 May 2024
Orbit: 505 x 516 km, 20.6° (Epoch: 19 May)

Event Time Altitude Azimuth Distance (km) Brightness Sun altitude
Rises 20:39:28 0° 250° (WSW) 2,608 6.5 -5.0°
Reaches altitude 10° 20:42:21 10° 229° (SW) 1,719 5.2 -5.5°
Maximum altitude 20:44:55 17° 188° (S) 1,354 4.1 -6.0°
Drops below altitude 10° 20:47:30 10° 148° (SSE) 1,714 4.3 -6.5°
Enters shadow 20:48:27 - 138° (SE) 1,979 4.6 -6.7°
